Location: Unspecified
(0.0000°N, 0.0000°E)
Time: 03:50:14
(UTC+02:00)

Cosmos 1626 Rocket - Visible Passes

Search period start: 02 September 2014 00:00
Search period end: 12 September 2014 00:00
Orbit: 604 x 634 km, 82.5° (Epoch: 31 August)

Date Brightness Start Highest point End Pass type
(mag) Time Alt. Az. Time Alt. Az. Time Alt. Az.
02 Sep 3.5 07:22:51 10° S 07:27:16 74° W 07:31:36 10° N visible
04 Sep 6.1 06:20:49 10° SE 06:24:12 22° E 06:27:31 10° NE visible
05 Sep 4.5 06:37:12 10° S 06:41:28 49° E 06:45:39 10° NNE visible
06 Sep 3.4 06:54:20 10° S 06:58:43 69° W 07:03:01 10° N visible
07 Sep 4.4 07:12:10 10° SSW 07:15:57 29° W 07:19:43 10° NNW visible
08 Sep 5.8 05:52:11 10° SSE 05:55:38 23° E 05:59:04 10° NE visible
08 Sep 5.3 07:31:13 10° WSW 07:33:12 13° W 07:35:10 10° WNW visible
09 Sep 4.2 06:10:04 20° SSE 06:12:54 53° E 06:17:07 10° NNE visible
10 Sep 3.4 06:29:58 63° WSW 06:30:09 64° W 06:34:25 10° N visible
11 Sep 5.0 06:49:14 20° NW 06:49:14 20° NW 06:51:03 10° NNW visible
